Flag for Australia Weather past 2 weeks in Traralgon, Victoria, Australia

Now
56 °F

Cool.


Feels Like: 56 °F
Forecast: 52 / 77 °F
Wind: No wind

Location: Latrobe Valley Airport

Current Time: Oct 26, 2014 at 8:35:24 AM

Latest Report: Oct 26, 2014 at 7:00 AM


Visibility: N/A

Pressure: 29.92 "Hg

Humidity: 98%

Dew point: 56 °F

Location of TraralgonLocation

Historic Weather in Traralgon — Graph

°F

Traralgon temperature yesterday

Maximum temperature yesterday: 67 °F (at 3:00 PM)
Minimum temperature yesterday: 56 °F (at 7:00 AM)
Average temperature yesterday: 60 °F

Past Weeks' High & Low Weather Summary

 TemperatureHumidityPressure
High87 °F (Oct 22, 4:00 PM)100% (Oct 12, 7:00 AM)30.47 "Hg (Oct 12, 7:00 AM)
Low39 °F (Oct 15, 7:00 AM)24% (Oct 19, 4:00 PM)29.65 "Hg (Oct 12, 6:00 PM)
Average57 °F79%30.11 "Hg
* Reported Oct 11 7:00 AM — Oct 26 7:00 AM, Traralgon, Weather by CustomWeather, © 2014

Note: Actual official high and low records may vary slightly from our data, if they occured in-between our weather recording intervals... More about our weather records

Advertising

Traralgon weather history for previous 24 hours

 ConditionsComfort  
Time TempWeatherWind HumidityBarometerVisibility
7:00 AM
Oct 26
56 °FCool.No wind98%29.92 "HgN/A
6:00 AM56 °FLow clouds.3 mph98%29.91 "HgN/A
4:00 AM56 °FCool.2 mph97%29.91 "HgN/A
3:00 AM56 °FOvercast.No wind99%29.92 "HgN/A
1:00 AM56 °FCool.6 mph93%29.98 "HgN/A
12:00 AM56 °FOvercast.6 mph87%30.00 "HgN/A
10:00 PM
Oct 25
57 °FCool.7 mph86%30.01 "HgN/A
9:00 PM58 °FOvercast.7 mph84%30.01 "HgN/A
7:00 PM61 °FCool.9 mph77%29.98 "HgN/A
6:00 PM62 °FOvercast.7 mph74%29.98 "HgN/A
4:00 PM67 °FMild.7 mph71%29.95 "HgN/A
3:00 PM67 °FOvercast.6 mph66%29.97 "HgN/A
1:00 PM64 °FMild.7 mph70%30.00 "HgN/A
12:00 PM63 °FOvercast.8 mph73%30.02 "HgN/A
10:00 AM60 °FCool.10 mph78%30.05 "HgN/A
9:00 AM59 °FOvercast.12 mph80%30.05 "HgN/A
Weather by CustomWeather, © 2014

See weather overviewHow to use our weather pages